Date String (YYYY-MM-DD hh:mm:ss) UTC,Instrument flags,Ambient pressure (hPa),Sample flow (lpm),Bypass flow (lpm),Sample temperature (°C),Ambient temperature (°C),ASC tube jacket temperature (°C),LED temperature (°C),Box temperature (°C),Sample RH (%),Span deviation,Mass concentration (μg/m³),Mass concentration (μg/m³),Mass concentration (μg/m³)
DateTimeUTC,F1_M11,P_M11,Q1_M11,Q2_M11,T1_M11,T2_M11,T3_M11,T4_M11,T5_M11,U1_M11,ZSPAN_M11,X0_M11,X2_M11,X1_M11
2023-04-08 10:00:00,,0828.9,5.00,0.00,22.4,20.7,00.0,30.8,23.9,10.7,0000.0,0009.17,0003.30,0001.90
2023-04-08 10:01:00,,0828.9,5.00,0.00,22.4,20.7,00.0,30.8,23.9,10.6,0000.0,0010.32,0003.33,0001.93
2023-04-08 10:02:00,,0828.9,5.00,0.00,22.4,20.7,00.0,30.8,23.9,10.7,0000.0,0010.45,0003.36,0001.95
2023-04-08 10:03:00,,0828.9,5.00,0.00,22.4,20.6,00.0,30.8,23.9,10.7,0000.0,0010.18,0003.33,0001.96
2023-04-08 10:04:00,,0829.0,5.00,0.00,22.4,20.6,00.0,30.8,23.8,10.7,0000.0,0010.11,0003.39,0001.98
2023-04-08 10:05:00,,0829.0,5.00,0.00,22.3,20.6,00.0,30.8,23.8,10.7,0000.0,0009.84,0003.40,0002.00
2023-04-08 10:06:00,,0829.0,5.00,0.00,22.3,20.6,00.0,30.8,23.8,10.7,0000.0,0010.05,0003.43,0002.03
2023-04-08 10:07:00,,0829.0,5.01,0.00,22.3,20.7,00.0,30.7,23.9,10.6,0000.0,0010.11,0003.42,0002.05
2023-04-08 10:08:00,,0828.9,4.99,0.00,22.3,20.6,00.0,30.7,23.8,10.7,0000.0,0010.16,0003.46,0002.05
2023-04-08 10:09:00,,0828.9,4.98,0.00,22.3,20.5,00.0,30.7,23.7,10.7,0000.0,0010.23,0003.48,0002.06
2023-04-08 10:10:00,,0828.8,5.01,0.00,22.3,20.5,00.0,30.7,23.7,10.7,0000.0,0010.58,0003.51,0002.08
2023-04-08 10:11:00,,0828.8,5.00,0.00,22.3,20.4,00.0,30.7,23.7,10.7,0000.0,0010.34,0003.53,0002.10
2023-04-08 10:12:00,,0828.8,5.01,0.00,22.3,20.4,00.0,30.7,23.7,10.7,0000.0,0009.39,0003.58,0002.10
2023-04-08 10:13:00,,0828.7,5.01,0.00,22.2,20.5,00.0,30.7,23.7,10.6,0000.0,0009.36,0003.57,0002.10
2023-04-08 10:14:00,,0828.8,4.98,0.00,22.2,20.5,00.0,30.7,23.7,10.6,0000.0,0009.76,0003.62,0002.11
2023-04-08 10:15:00,,0828.7,5.00,0.00,22.3,20.5,00.0,30.7,23.8,10.7,0000.0,0009.88,0003.64,0002.10
2023-04-08 10:16:00,,0828.7,5.01,0.00,22.2,20.5,00.0,30.7,23.7,10.7,0000.0,0009.87,0003.67,0002.12
2023-04-08 10:17:00,,0828.8,5.00,0.00,22.2,20.5,00.0,30.6,23.7,10.7,0000.0,0009.45,0003.68,0002.12
2023-04-08 10:18:00,,0828.8,4.98,0.00,22.2,20.5,00.0,30.6,23.7,10.7,0000.0,0009.45,0003.72,0002.13
2023-04-08 10:19:00,,0828.8,5.01,0.00,22.2,20.5,00.0,30.6,23.7,10.9,0000.0,0009.37,0003.70,0002.13
2023-04-08 10:20:00,,0828.7,5.00,0.00,22.2,20.4,00.0,30.6,23.7,11.0,0000.0,0009.38,0003.67,0002.14
2023-04-08 10:21:00,,0828.8,5.00,0.00,22.2,20.7,00.0,30.6,23.9,10.9,0000.0,0009.12,0003.67,0002.12
2023-04-08 10:22:00,,0828.8,5.01,0.00,22.3,21.8,00.0,30.5,24.2,10.9,0000.0,0009.38,0003.61,0002.11
2023-04-08 10:23:00,,0828.8,5.00,0.00,22.5,22.7,00.0,30.6,24.5,10.9,0000.0,0009.23,0003.55,0002.10
2023-04-08 10:24:00,,0828.8,4.99,0.00,22.5,22.7,00.0,30.6,24.4,10.7,0000.0,0009.04,0003.51,0002.11
2023-04-08 10:25:00,,0828.8,5.00,0.00,22.5,22.4,00.0,30.7,24.3,10.7,0000.0,0008.77,0003.54,0002.12
2023-04-08 10:26:00,,0828.8,5.00,0.00,22.5,22.1,00.0,30.7,24.2,10.6,0000.0,0009.30,0003.52,0002.14
2023-04-08 10:27:00,,0828.8,4.99,0.00,22.5,21.8,00.0,30.7,24.1,10.6,0000.0,0009.41,0003.56,0002.13
2023-04-08 10:28:00,,0828.8,5.01,0.00,22.5,21.5,00.0,30.8,24.0,10.6,0000.0,0009.48,0003.56,0002.12
2023-04-08 10:29:00,,0828.8,4.99,0.00,22.4,21.3,00.0,30.8,23.9,10.6,0000.0,0009.47,0003.58,0002.12
2023-04-08 10:30:00,,0828.8,4.99,0.00,22.4,21.1,00.0,30.8,23.9,10.5,0000.0,0009.42,0003.55,0002.11
2023-04-08 10:31:00,,0828.8,5.00,0.00,22.3,20.9,00.0,30.8,23.9,10.5,0000.0,0009.27,0003.56,0002.12
2023-04-08 10:32:00,,0828.7,5.01,0.00,22.3,20.8,00.0,30.7,23.8,10.5,0000.0,0009.52,0003.57,0002.12
2023-04-08 10:33:00,,0828.9,5.00,0.00,22.3,20.6,00.0,30.7,23.8,10.5,0000.0,0009.71,0003.62,0002.14
2023-04-08 10:34:00,,0828.8,5.02,0.00,22.3,20.6,00.0,30.7,23.8,10.5,0000.0,0009.64,0003.66,0002.16
2023-04-08 10:35:00,,0828.8,4.99,0.00,22.3,20.5,00.0,30.7,23.7,10.6,0000.0,0009.73,0003.71,0002.20
2023-04-08 10:36:00,,0828.8,4.99,0.00,22.2,20.4,00.0,30.7,23.7,10.7,0000.0,0009.87,0003.69,0002.22
2023-04-08 10:37:00,,0828.8,5.00,0.00,22.2,20.4,00.0,30.7,23.6,10.7,0000.0,0010.20,0003.74,0002.23
2023-04-08 10:38:00,,0828.8,4.99,0.00,22.2,20.4,00.0,30.7,23.6,10.8,0000.0,0010.43,0003.74,0002.26
2023-04-08 10:39:00,,0828.8,5.00,0.00,22.2,20.3,00.0,30.7,23.6,10.7,0000.0,0010.63,0003.82,0002.30
2023-04-08 10:40:00,,0828.8,5.01,0.00,22.1,20.3,00.0,30.6,23.6,10.8,0000.0,0011.10,0003.84,0002.33
2023-04-08 10:41:00,,0828.8,4.99,0.00,22.1,20.3,00.0,30.6,23.6,10.8,0000.0,0011.78,0003.90,0002.35
2023-04-08 10:42:00,,0828.8,4.99,0.00,22.1,20.3,00.0,30.6,23.6,10.8,0000.0,0012.70,0003.90,0002.37
2023-04-08 10:43:00,,0828.8,5.03,0.00,22.1,20.2,00.0,30.6,23.6,10.8,0000.0,0012.37,0003.89,0002.39
2023-04-08 10:44:00,,0828.8,5.00,0.00,22.1,20.2,00.0,30.6,23.6,10.8,0000.0,0012.17,0003.90,0002.40
2023-04-08 10:45:00,,0828.8,4.99,0.00,22.1,20.2,00.0,30.6,23.5,10.8,0000.0,0012.20,0003.91,0002.41
2023-04-08 10:46:00,,0828.8,4.99,0.00,22.0,20.2,00.0,30.5,23.5,10.8,0000.0,0012.23,0003.94,0002.43
2023-04-08 10:47:00,,0828.8,5.01,0.00,22.0,20.3,00.0,30.5,23.5,10.9,0000.0,0012.38,0003.99,0002.41
2023-04-08 10:48:00,,0828.8,5.02,0.00,22.1,21.0,00.0,30.5,23.9,10.8,0000.0,0011.43,0003.93,0002.41
2023-04-08 10:49:00,,0829.0,4.99,0.00,22.2,22.2,00.0,30.4,24.3,10.7,0000.0,0011.37,0003.90,0002.40
2023-04-08 10:50:00,,0829.0,4.99,0.00,22.4,22.9,00.0,30.5,24.4,10.7,0000.0,0011.57,0003.85,0002.39
2023-04-08 10:51:00,,0829.0,5.00,0.00,22.4,22.6,00.0,30.6,24.2,10.6,0000.0,0011.46,0003.85,0002.38
2023-04-08 10:52:00,,0829.0,5.01,0.00,22.4,22.3,00.0,30.6,24.2,10.6,0000.0,0011.12,0003.81,0002.38
2023-04-08 10:53:00,,0829.0,5.00,0.00,22.4,22.0,00.0,30.7,24.1,10.6,0000.0,0010.08,0003.85,0002.38
2023-04-08 10:54:00,,0829.0,5.01,0.00,22.4,21.7,00.0,30.7,24.0,10.8,0000.0,0010.30,0003.93,0002.40
2023-04-08 10:55:00,,0829.0,4.99,0.00,22.4,21.5,00.0,30.7,23.9,10.7,0000.0,0010.42,0003.92,0002.41
2023-04-08 10:56:00,,0829.0,4.99,0.00,22.4,21.2,00.0,30.7,23.9,10.8,0000.0,0010.87,0003.98,0002.41
2023-04-08 10:57:00,,0829.0,5.00,0.00,22.4,21.1,00.0,30.7,23.9,10.9,0000.0,0011.07,0003.97,0002.40
2023-04-08 10:58:00,,0828.9,5.00,0.00,22.3,21.0,00.0,30.7,23.8,11.2,0000.0,0011.03,0003.94,0002.41
2023-04-08 10:59:00,,0828.9,4.99,0.00,22.3,20.9,00.0,30.7,23.8,11.4,0000.0,0011.31,0003.95,0002.43
